[[{"header":{"parameterUnit":"m.s-1","parameterCategory":1,"la1":30.2991,"la2":30.254,"lo1":-89.0895,"lo2":-89.0444,"dy":0.0017,"dx":0.0017,"nx":28,"ny":28,"refTime":"2024-08-29T21:00:00:Z","depth":0,"parameterNumber":2,"parameterNumberName":"U-component_of_WINDS"},"data":[0,0,0,0,0,0,0,0,0,0,0,0,0,0,0,0,0,0,0,0,0,0,0,0,0,0,0,0,0,0,0,0,0,0,0,0,0,0,0,0,0,0,0,0,0,0,0,0,0,0,0,0,0,0,0,0,0,0,-5.3743,-5.3744,0,-5.3897,-5.3899,-5.39,-5.3891,-5.3888,-5.3886,-5.3884,-5.4031,-5.4037,-5.4043,0,0,0,0,0,0,0,0,0,0,0,0,0,-5.3427,-5.3433,-5.3742,-5.3744,-5.3746,-5.3897,-5.3899,-5.3901,-5.3891,-5.3888,-5.3886,-5.3883,-5.4029,-5.4036,-5.4044,0,0,0,0,0,0,0,0,0,0,0,0,0,-5.3571,-5.3435,-5.3742,-5.376,-5.3763,-5.3896,-5.3899,-5.3901,-5.3892,-5.3888,-5.3885,-5.3882,-5.4027,-5.4036,-5.4044,-5.4167,0,0,-5.4072,-5.4076,0,0,0,0,0,0,0,0,-5.3563,-5.3582,-5.3755,-5.3759,-5.3763,-5.3871,-5.3842,-5.399,-5.3892,-5.3842,-5.3884,-5.388,-5.398,-5.3993,-5.4029,-5.4174,-5.418,-5.4073,-5.4078,-5.4082,-5.4085,0,0,0,0,0,0,0,-5.3553,-5.3576,-5.3803,-5.3758,-5.3762,-5.3756,-5.3773,-5.387,-5.3928,-5.3847,-5.3846,-5.3865,-5.3981,-5.402,-5.4032,-5.4182,-5.4072,-5.408,-5.4086,-5.409,-5.4432,-5.4436,0,0,0,0,0,0,-5.3541,-5.3568,-5.3798,-5.3808,-5.3653,-5.3765,-5.3783,-5.384,-5.3927,-5.3937,-5.3868,-5.3864,-5.4006,-5.4021,-5.4037,-5.4184,-5.4082,-5.409,-5.4096,-5.4428,-5.4433,-5.4437,0,0,0,0,0,0,-5.3534,-5.3561,-5.3792,-5.3688,-5.3717,-5.3774,-5.3837,-5.3844,-5.3883,-5.3943,-5.3952,-5.3898,-5.4004,-5.4024,-5.4135,-5.4189,-5.4094,-5.4103,-5.4424,-5.443,-5.4435,-5.448,0,0,0,0,0,0,-5.3525,-5.3559,-5.3609,-5.3689,-5.3722,-5.3891,-5.384,-5.385,-5.39,-5.3897,-5.3973,-5.3983,-5.4003,-5.4121,-5.4144,-5.42,-5.411,-5.4419,-5.4427,-5.4433,-5.4474,-5.4487,-5.4498,0,0,0,0,0,-5.3514,-5.3614,-5.3612,-5.3639,-5.3787,-5.3894,-5.3913,-5.3937,-5.3905,-5.3953,-5.3991,-5.398,-5.418,-5.4133,-5.4158,-5.4217,-5.4416,-5.4425,-5.4433,-5.4469,-5.4484,-5.4497,0,0,0,0,0,0,-5.3534,-5.3624,-5.3623,-5.3753,-5.3816,-5.3892,-5.3954,-5.3953,-5.4024,-5.4018,-5.4042,-5.4059,-5.417,-5.4205,-5.415,-5.4339,-5.4293,-5.4307,-5.4312,-5.4327,-5.4339,-5.4327,-5.4117,0,0,0,0,0,-5.3555,-5.3639,-5.3711,-5.3818,-5.385,-5.3897,-5.3945,-5.3959,-5.4024,-5.4049,-5.4096,-5.4156,-5.4232,-5.4282,-5.4356,-5.448,-5.4494,-5.4533,-5.4544,-5.4554,-5.4564,-5.463,-5.4647,-5.4464,-5.4464,-5.4464,0,0,-5.3596,-5.3656,-5.3706,-5.3824,-5.3875,-5.3957,-5.392,-5.4008,-5.4068,-5.4062,-5.4169,-5.4205,-5.4274,-5.4391,-5.4445,-5.4424,-5.4618,-5.4564,-5.4571,-5.4577,-5.464,-5.4658,-5.4673,-5.447,-5.4469,-5.4468,0,0,-5.3714,-5.3769,-5.3863,-5.3916,-5.3994,-5.4025,-5.4047,-5.4124,-5.4149,-5.4258,-5.4254,-5.4324,-5.4455,-5.4504,-5.4546,-5.4681,-5.4673,-5.4704,-5.4764,-5.4828,-5.4842,-5.4855,-5.4901,-5.4918,-5.4715,-5.4715,-5.4716,0,-5.3754,-5.3882,-5.3911,-5.4001,-5.4051,-5.4053,-5.4146,-5.4194,-5.4291,-5.4324,-5.43,-5.4464,-5.4511,-5.4638,-5.4671,-5.4706,-5.473,-5.4695,-5.4839,-5.4852,-5.4864,-5.4908,-5.4926,-5.4719,-5.4718,-5.4718,-5.4718,0,-5.3927,-5.4015,-5.4081,-5.4179,-5.4236,-5.4327,-5.4366,-5.442,-5.4429,-5.4461,-5.457,-5.4626,-5.471,-5.4742,-5.475,-5.487,-5.4854,-5.4834,-5.4788,-5.4884,-5.4926,-5.4943,-5.4723,-5.4722,-5.4721,-5.472,0,0,-5.4061,-5.4174,-5.4198,-5.4241,-5.4328,-5.4395,-5.4484,-5.457,-5.4615,-5.4681,-5.4754,-5.4866,-5.4848,-5.4895,-5.4908,-5.4965,-5.5065,-5.4938,-5.4939,-5.4957,-5.5198,-5.5211,-5.523,-5.5061,-5.5064,-5.5067,-5.5191,0,-5.4186,-5.435,-5.4378,-5.4519,-5.4598,-5.4601,-5.4678,-5.4737,-5.4769,-5.4838,-5.4871,-5.4949,-5.4921,-5.4949,-5.5005,-5.5041,-5.5113,-5.5033,-5.5125,-5.5128,-5.5107,-5.5252,-5.5267,-5.5382,-5.5208,-5.5211,-5.5213,0,-5.4354,-5.4428,-5.4578,-5.4653,-5.4687,-5.4757,-5.4837,-5.4905,-5.497,-5.4989,-5.5043,-5.5049,-5.5138,-5.509,-5.521,-5.5155,-5.5194,-5.5217,-5.5222,-5.523,-5.5175,-5.5262,-5.5419,-5.5436,-5.5239,-5.5237,-5.5235,0,-5.4434,-5.4571,-5.4679,-5.4716,-5.4806,-5.4855,-5.4894,-5.4957,-5.5006,-5.5075,-5.5106,-5.5183,-5.5224,-5.5282,-5.5307,-5.527,-5.5425,-5.538,-5.544,-5.5439,-5.5471,-5.5468,-5.5635,-5.55,-5.55,-5.5499,-5.5499,0,-5.457,-5.4661,-5.4716,-5.4782,-5.4883,-5.4912,-5.501,-5.5047,-5.5103,-5.5173,-5.5178,-5.5243,-5.5274,-5.5342,-5.5362,-5.5457,-5.5476,-5.5491,-5.5495,-5.549,-5.5487,-5.5514,-5.5506,-5.5504,-5.5503,-5.5502,-5.5501,0,-5.4676,-5.4718,-5.4834,-5.4911,-5.4932,-5.5003,-5.5066,-5.5128,-5.5159,-5.5247,-5.5269,-5.5317,-5.5398,-5.543,-5.5527,-5.5541,-5.565,-5.5648,-5.5629,-5.5629,-5.5687,-5.568,-5.5875,-5.5901,-5.5751,-5.5752,-5.5753,0,-5.4759,-5.483,-5.4915,-5.4964,-5.5006,-5.5084,-5.5135,-5.5166,-5.5218,-5.5298,-5.5349,-5.543,-5.5497,-5.5624,-5.5665,-5.5739,-5.5738,-5.5801,-5.5749,-5.5741,-5.5736,-5.5731,-5.5737,-5.581,-5.5811,-5.5813,-5.5814,0,-5.4902,-5.4919,-5.4994,-5.5077,-5.5138,-5.5203,-5.5267,-5.5305,-5.5345,-5.5402,-5.5487,-5.5539,-5.5639,-5.5718,-5.5794,-5.583,-5.5827,-5.583,-5.5848,-5.5842,-5.5827,-5.5834,-5.5653,-5.5825,-5.5824,-5.5823,-5.5822,-5.5822,-5.4998,-5.506,-5.513,-5.5213,-5.5264,-5.5323,-5.5385,-5.5425,-5.5497,-5.5584,-5.5596,-5.5685,-5.5746,-5.5849,-5.5888,-5.5955,-5.5938,-5.5964,-5.597,-5.5976,-5.5979,-5.5818,-5.5969,-5.5969,-5.5969,-5.5969,-5.5968,0,-5.5139,-5.5184,-5.5261,-5.535,-5.5415,-5.5411,-5.548,-5.5533,-5.5613,-5.5672,-5.5738,-5.5833,-5.5909,-5.5957,-5.6033,-5.6077,-5.6078,-5.6096,-5.6092,-5.61,-5.5991,-5.5967,-5.6094,-5.6094,-5.6094,-5.6094,-5.6094,-5.6094,-5.522,-5.5325,-5.5349,-5.5478,-5.5521,-5.5612,-5.5651,-5.5704,-5.5751,-5.5858,-5.5923,-5.5955,-5.6008,-5.6088,-5.6157,-5.6168,-5.6195,-5.6214,-5.6224,-5.6121,-5.6108,-5.6095,-5.6073,-5.622,-5.6221,-5.6327,-5.6328,-5.6329]},{"header":{"parameterUnit":"m.s-1","parameterCategory":1,"la1":30.2991,"la2":30.254,"lo1":-89.0895,"lo2":-89.0444,"dy":0.0017,"dx":0.0017,"nx":28,"ny":28,"refTime":"2024-08-29T21:00:00:Z","depth":0,"parameterNumber":3,"parameterNumberName":"V-component_of_WINDS"},"data":[0,0,0,0,0,0,0,0,0,0,0,0,0,0,0,0,0,0,0,0,0,0,0,0,0,0,0,0,0,0,0,0,0,0,0,0,0,0,0,0,0,0,0,0,0,0,0,0,0,0,0,0,0,0,0,0,0,0,3.3297,3.3297,0,3.3305,3.3305,3.3305,3.3244,3.3242,3.3241,3.3239,3.3246,3.3248,3.3249,0,0,0,0,0,0,0,0,0,0,0,0,0,3.3227,3.3228,3.3297,3.3297,3.3297,3.3305,3.3305,3.3305,3.3244,3.3242,3.324,3.3238,3.3245,3.3247,3.3249,0,0,0,0,0,0,0,0,0,0,0,0,0,3.3248,3.3229,3.3297,3.3268,3.3265,3.3305,3.3305,3.3306,3.3245,3.3242,3.324,3.3237,3.3245,3.3247,3.325,3.3318,0,0,3.3258,3.3259,0,0,0,0,0,0,0,0,3.3247,3.3251,3.3272,3.327,3.3267,3.3271,3.3283,3.331,3.3245,3.3253,3.3239,3.3236,3.3256,3.3258,3.3265,3.3318,3.3318,3.3258,3.326,3.3261,3.3262,0,0,0,0,0,0,0,3.3246,3.325,3.33,3.3272,3.3269,3.3254,3.3254,3.3288,3.3269,3.3252,3.3247,3.3249,3.3254,3.3262,3.3265,3.3319,3.3258,3.326,3.3262,3.3263,3.3428,3.3431,0,0,0,0,0,0,3.3249,3.325,3.33,3.3301,3.3251,3.3257,3.3257,3.3272,3.3268,3.3265,3.3251,3.3246,3.3259,3.3262,3.3265,3.3344,3.3261,3.3263,3.3265,3.3425,3.3429,3.3432,0,0,0,0,0,0,3.3247,3.3254,3.33,3.3274,3.3279,3.3261,3.3278,3.3274,3.3282,3.3268,3.3264,3.3263,3.3257,3.3261,3.3305,3.3343,3.3265,3.3267,3.3422,3.3426,3.343,3.3504,0,0,0,0,0,0,3.3246,3.3254,3.328,3.3275,3.328,3.3341,3.3281,3.3276,3.3287,3.328,3.3278,3.3275,3.3255,3.3301,3.3308,3.3346,3.3269,3.3418,3.3424,3.3429,3.3498,3.351,3.352,0,0,0,0,0,3.3243,3.33,3.3281,3.3288,3.3313,3.3343,3.3346,3.3323,3.329,3.3316,3.3307,3.3275,3.3338,3.3307,3.3313,3.3352,3.3416,3.3422,3.3428,3.3493,3.3508,3.352,0,0,0,0,0,0,3.3309,3.3299,3.3278,3.3335,3.3341,3.3333,3.3365,3.3339,3.3354,3.3347,3.3317,3.3317,3.3366,3.3363,3.3328,3.3418,3.3371,3.3379,3.3418,3.3432,3.3443,3.3443,3.3271,0,0,0,0,0,3.333,3.3356,3.3346,3.3397,3.3401,3.3383,3.3395,3.3376,3.3381,3.3383,3.3377,3.3382,3.3403,3.3417,3.3435,3.3497,3.3496,3.3527,3.3539,3.3548,3.3555,3.3587,3.3601,3.3452,3.3452,3.3452,0,0,3.3374,3.3372,3.339,3.341,3.3412,3.344,3.3385,3.3416,3.3436,3.3387,3.3429,3.3425,3.3428,3.3482,3.3505,3.3481,3.3596,3.3556,3.3563,3.3565,3.3595,3.3609,3.3622,3.3456,3.3456,3.3455,0,0,3.3468,3.3469,3.3512,3.3515,3.3519,3.3507,3.3517,3.3513,3.3509,3.355,3.3514,3.3537,3.3574,3.3578,3.3585,3.3681,3.3652,3.3687,3.3746,3.3778,3.379,3.38,3.3835,3.3847,3.3695,3.3695,3.3695,0,3.3522,3.3562,3.3537,3.3571,3.3581,3.3538,3.3581,3.3585,3.3595,3.3603,3.3576,3.3621,3.362,3.3674,3.3698,3.3705,3.3715,3.3688,3.379,3.38,3.381,3.3842,3.3855,3.3699,3.3699,3.3698,3.3698,0,3.3628,3.3657,3.3691,3.3702,3.3716,3.3754,3.3734,3.375,3.3731,3.3721,3.3764,3.3761,3.3779,3.379,3.3771,3.3841,3.3826,3.3796,3.3748,3.3829,3.3859,3.3871,3.3705,3.3704,3.3702,3.3701,0,0,3.3764,3.3761,3.3774,3.3779,3.378,3.3801,3.3837,3.3855,3.387,3.3878,3.3907,3.3939,3.3911,3.3919,3.39,3.3928,3.4004,3.3893,3.3893,3.3914,3.4082,3.4105,3.412,3.3985,3.3987,3.3989,3.4081,0,3.3856,3.3919,3.3896,3.396,3.3986,3.3946,3.3977,3.3981,3.3973,3.3993,3.3984,3.4007,3.3968,3.3972,3.3998,3.3989,3.4037,3.3982,3.4012,3.4013,3.4013,3.4135,3.416,3.4248,3.4093,3.4095,3.4096,0,3.3972,3.3986,3.4052,3.4049,3.4059,3.4088,3.4102,3.4122,3.4126,3.4118,3.4127,3.4102,3.4136,3.4089,3.4136,3.4099,3.411,3.4108,3.411,3.4112,3.406,3.4141,3.4275,3.4288,3.4114,3.4113,3.4112,0,3.4065,3.4099,3.4144,3.4149,3.4146,3.4167,3.4167,3.4168,3.418,3.4192,3.42,3.4216,3.4225,3.4237,3.4217,3.4184,3.4268,3.4218,3.4262,3.4263,3.4281,3.4281,3.4419,3.4288,3.4288,3.4288,3.4287,0,3.417,3.4212,3.4185,3.4213,3.4258,3.4232,3.4278,3.4273,3.4275,3.43,3.4266,3.429,3.4262,3.4283,3.4268,3.431,3.4314,3.4308,3.4303,3.4311,3.4312,3.4318,3.4312,3.4291,3.429,3.429,3.4289,0,3.4282,3.4266,3.4311,3.4305,3.4305,3.4339,3.4333,3.4358,3.4347,3.438,3.4386,3.4369,3.4392,3.4373,3.4396,3.4386,3.4441,3.4428,3.444,3.4437,3.4481,3.4478,3.4629,3.4647,3.4504,3.4506,3.4507,0,3.4351,3.4382,3.438,3.4394,3.4397,3.4421,3.4433,3.4408,3.4422,3.4428,3.4452,3.4473,3.4488,3.4528,3.4518,3.4535,3.4522,3.4573,3.4524,3.4531,3.4523,3.4521,3.4525,3.4584,3.4585,3.4587,3.4588,0,3.4474,3.4464,3.4483,3.45,3.4515,3.4527,3.4536,3.4549,3.4524,3.4541,3.4565,3.4577,3.4601,3.4622,3.4636,3.4635,3.4608,3.4603,3.4614,3.4623,3.4629,3.4627,3.4468,3.46,3.4599,3.4598,3.4597,3.4597,3.4566,3.4593,3.4595,3.4618,3.4622,3.4631,3.4654,3.4646,3.4665,3.4683,3.4667,3.4696,3.4698,3.4714,3.4717,3.4739,3.4717,3.4733,3.4737,3.4742,3.4748,3.4626,3.4741,3.4741,3.474,3.474,3.474,0,3.4688,3.4688,3.4709,3.4723,3.474,3.4713,3.4721,3.4737,3.4763,3.4768,3.4784,3.4812,3.4832,3.4823,3.4841,3.486,3.4848,3.4866,3.4864,3.4864,3.4766,3.4755,3.4875,3.4875,3.4875,3.4875,3.4875,3.4875,3.4754,3.4797,3.4788,3.4832,3.4831,3.486,3.4867,3.4875,3.4879,3.4911,3.4928,3.4922,3.4921,3.4939,3.4956,3.4953,3.4961,3.4983,3.4976,3.4885,3.4871,3.4859,3.4848,3.4985,3.4985,3.5072,3.5073,3.5073]}]]